Olive Branch, MS

10:40 AM CDT on June 23, 2017 (GMT -0500)
Olive Branch

Weather History for KOLV - March, 2013

Change the Weather History Date:

Friday, March 22, 2013

  Actual Average (KMEM) Record (KMEM)
Temperature  
Mean Temperature 38 °F -  
Max Temperature 44 °F 63 °F 83 °F (1898)
Min Temperature 32 °F 42 °F 23 °F (1968)
Degree Days  
Heating Degree Days 27    
Moisture  
Dew Point 38 °F    
Average Humidity 100    
Maximum Humidity 100    
Minimum Humidity 100    
Precipitation  
Precipitation 0.37 in - - ()
Sea Level Pressure  
Sea Level Pressure 29.94 in    
Wind  
Wind Speed 6 mph (East)    
Max Wind Speed 9 mph    
Max Gust Speed -    
Visibility 6 miles    
Events Rain    
Averages and records for this station are not official NWS values.
T = Trace of Precipitation, MM = Missing Value Source: NWS Daily Summary

Daily Weather History Graph

Daily Weather History Graph

Search for Another Location

Airport or City:

Trip Planner

Search our weather history database for the weather conditions in past years. The results will help you decide how hot, cold, wet, or windy it might be!

Date:

Astronomy

Mar. 22, 2013 Rise Set
Actual Time 6:59 AM CDT 7:12 PM CDT
Civil Twilight 6:34 AM CDT 7:37 PM CDT
Nautical Twilight 6:04 AM CDT 8:07 PM CDT
Astronomical Twilight 5:34 AM CDT 8:37 PM CDT
Moon 2:49 PM CDT (3/22) 3:50 AM CDT (3/22)
Length of Visible Light 13h 03m
Length of Day
12h 13m
Waxing Gibbous, 77% of the Moon is Illuminated
Mar 22
Waxing Gibbous
Mar 27
Full
Apr 2
Last Quarter
Apr 10
New
Apr 18
First Quarter

Hourly Weather History & Observations

Time (CDT) Temp. Windchill Dew Point Humidity Pressure Visibility Wind Dir Wind Speed Gust Speed Precip Events Conditions
12:15 AM 33.8 °F - 33.8 °F 100% 30.01 in 3.0 mi Calm Calm - 0.01 in   Mostly Cloudy
12:35 AM 32.0 °F 24.8 °F 32.0 °F 100% 29.99 in 2.0 mi NE 8.1 mph - 0.07 in   Overcast
12:55 AM 32.0 °F 24.8 °F 32.0 °F 100% 29.96 in 2.5 mi ENE 8.1 mph - 0.11 in   Mostly Cloudy
1:15 AM 32.0 °F 26.4 °F 32.0 °F 100% 29.97 in 3.0 mi ENE 5.8 mph - 0.01 in   Overcast
1:35 AM 33.8 °F 27.7 °F 33.8 °F 100% 29.98 in 2.5 mi SE 6.9 mph - 0.05 in   Mostly Cloudy
1:55 AM 33.8 °F 26.4 °F 33.8 °F 100% 29.95 in 2.5 mi ENE 9.2 mph - 0.09 in   Overcast
2:15 AM 33.8 °F 26.4 °F 33.8 °F 100% 29.96 in 4.0 mi ENE 9.2 mph - 0.01 in   Mostly Cloudy
2:35 AM 33.8 °F 27.7 °F 33.8 °F 100% 29.97 in 2.5 mi East 6.9 mph - 0.04 in   Overcast
2:55 AM 33.8 °F 27.0 °F 33.8 °F 100% 29.95 in 4.0 mi East 8.1 mph - 0.06 in   Overcast
3:15 AM 33.8 °F 27.7 °F 33.8 °F 100% 29.96 in 7.0 mi ESE 6.9 mph - 0.00 in   Overcast
3:35 AM 33.8 °F 28.6 °F 33.8 °F 100% 29.95 in 2.5 mi ESE 5.8 mph - 0.05 in   Overcast
3:55 AM 33.8 °F 27.0 °F 33.8 °F 100% 29.93 in 4.0 mi East 8.1 mph - 0.07 in   Overcast
4:15 AM 33.8 °F 27.7 °F 33.8 °F 100% 29.93 in 6.0 mi East 6.9 mph - 0.00 in   Overcast
4:35 AM 33.8 °F 27.7 °F 33.8 °F 100% 29.92 in 9.0 mi East 6.9 mph - 0.01 in   Mostly Cloudy
4:55 AM 35.6 °F 29.9 °F 35.6 °F 100% 29.92 in 9.0 mi East 6.9 mph - 0.01 in   Overcast
5:15 AM 35.6 °F 29.2 °F 35.6 °F 100% 29.91 in 9.0 mi ESE 8.1 mph - 0.00 in   Overcast
5:35 AM 35.6 °F 29.9 °F 35.6 °F 100% 29.92 in 9.0 mi ESE 6.9 mph - 0.00 in   Overcast
5:55 AM 35.6 °F 29.9 °F 35.6 °F 100% 29.92 in 10.0 mi ESE 6.9 mph - N/A   Overcast
6:15 AM 35.6 °F 29.9 °F 35.6 °F 100% 29.93 in 8.0 mi East 6.9 mph - 0.00 in   Overcast
6:35 AM 35.6 °F 31.7 °F 35.6 °F 100% 29.95 in 7.0 mi East 4.6 mph - 0.00 in   Overcast
6:50 AM 35.6 °F 28.6 °F 35.6 °F 100% 29.96 in 3.0 mi East 9.2 mph - N/A Rain Light Rain
6:55 AM 35.6 °F 30.7 °F 35.6 °F 100% 29.95 in 3.0 mi East 5.8 mph - 0.03 in   Overcast
7:50 AM 35.6 °F 29.9 °F 35.6 °F 100% 29.96 in 7.0 mi East 6.9 mph - N/A   Mostly Cloudy
8:50 AM 37.4 °F 30.8 °F 37.4 °F 100% 29.96 in 7.0 mi ESE 9.2 mph - N/A   Mostly Cloudy
9:50 AM 39.2 °F 33.6 °F 39.2 °F 100% 29.97 in 7.0 mi East 8.1 mph - N/A   Overcast
10:50 AM 41.0 °F 35.8 °F 41.0 °F 100% 29.98 in 5.0 mi SE 8.1 mph - N/A   Overcast
11:50 AM 41.0 °F 35.8 °F 41.0 °F 100% 29.96 in 3.0 mi East 8.1 mph - N/A Rain Light Rain
2:50 PM 42.8 °F 38.0 °F 42.8 °F 100% 29.92 in 10.0 mi ESE 8.1 mph - N/A   Overcast
3:50 PM 44.6 °F 40.2 °F 44.6 °F 100% 29.88 in 10.0 mi East 8.1 mph - N/A   Overcast
4:50 PM 44.6 °F 40.7 °F 44.6 °F 100% 29.89 in 10.0 mi East 6.9 mph - N/A   Overcast
5:50 PM 44.6 °F 40.7 °F 44.6 °F 100% 29.90 in 8.0 mi East 6.9 mph - N/A   Overcast
6:50 PM 44.6 °F 43.1 °F 44.6 °F 100% 29.91 in 8.0 mi ENE 3.5 mph - N/A   Overcast
7:50 PM 44.6 °F 42.2 °F 44.6 °F 100% 29.92 in 10.0 mi ENE 4.6 mph - N/A   Overcast
9:15 PM 44.6 °F 41.4 °F 44.6 °F 100% 29.93 in 10.0 mi ENE 5.8 mph - 0.00 in   Overcast
9:35 PM 44.6 °F 42.2 °F 44.6 °F 100% 29.94 in 10.0 mi ENE 4.6 mph - 0.00 in   Overcast
9:55 PM 44.6 °F 41.4 °F 44.6 °F 100% 29.93 in 10.0 mi ENE 5.8 mph - 0.00 in   Overcast
10:15 PM 44.6 °F 42.2 °F 44.6 °F 100% 29.93 in 7.0 mi East 4.6 mph - 0.00 in   Overcast
10:35 PM 44.6 °F 43.1 °F 44.6 °F 100% 29.95 in 6.0 mi East 3.5 mph - 0.00 in   Overcast
10:55 PM 44.6 °F 42.2 °F 44.6 °F 100% 29.94 in 7.0 mi NE 4.6 mph - 0.00 in   Overcast
11:15 PM 44.6 °F 42.2 °F 44.6 °F 100% 29.94 in 3.0 mi East 4.6 mph - 0.00 in   Overcast
11:35 PM 44.6 °F - 44.6 °F 100% 29.94 in 3.0 mi Calm Calm - 0.00 in   Overcast
11:55 PM 44.6 °F 42.2 °F 44.6 °F 100% 29.93 in 2.5 mi East 4.6 mph - 0.00 in   Overcast